Regional Weather Roundup
Issued by NWS

Home | Current Version | Previous Version | Text Only | Print | Product List | Glossary Off
Versions: 1 2 3 4 5 6 7 8 9 10 11 12 13 14 15 16 17 18 19 20 21 22 23 24 25 26 27 28 29 30 31 32 33 34 35 36 37 38 39 40 41 42 43 44 45 46 47 48 49 50

000
ASUS43 KOAX 141402
RWRNE

WEATHER ROUNDUP FOR NEBRASKA
NATIONAL WEATHER SERVICE OMAHA NE
900 AM CDT SUN SEP 14 2014

NOTES: SATELLITE DATA IS BEING USED TO AUGMENT CLOUD COVER ABOVE
       12000 FEET.
       "FAIR" INDICATES FEW OR NO CLOUDS BELOW 12,000 FEET WITH NO
       SIGNIFICANT WEATHER AND/OR OBSTRUCTIONS TO VISIBILITY.

  * THESE STATIONS DO NOT REPORT WEATHER SUCH AS RAIN...SNOW OR FOG.

NEZ001>004-019>022-054>056-141500-
NEBRASKA PANHANDLE

CITY           SKY/WX    TMP DP  RH WIND       PRES   REMARKS
SCOTTSBLUFF    CLOUDY    47  46  97 SE5       30.11S FOG
ALLIANCE       CLOUDY    45  42  89 SE15      30.11F
CHADRON        CLOUDY    43  39  86 NE6       30.15S
KIMBALL        SUNNY     44  43  96 CALM      30.10R
SIDNEY         FOG       46  44  93 E5        30.12S VSB<1/4
$$

NEZ057>060-069>072-079>082-141500-
SOUTHWEST NEBRASKA

CITY           SKY/WX    TMP DP  RH WIND       PRES   REMARKS
NORTH PLATTE   MOSUNNY   43  41  93 E5        30.16R
IMPERIAL       MOSUNNY   45  43  93 E8        30.13S
LEXINGTON      MOSUNNY   46  43  91 CALM      30.16S
MCCOOK         SUNNY     45  42  89 E6        30.14F
OGALLALA       SUNNY     45  44  96 E5        30.14S
$$

NEZ005>010-023>029-035>040-094-141500-
NORTH CENTRAL NEBRASKA

CITY           SKY/WX    TMP DP  RH WIND       PRES   REMARKS
VALENTINE      MOSUNNY   46  40  79 CALM      30.18S
AINSWORTH      MOSUNNY   45  42  91 E3        30.17F
BROKEN BOW     PTSUNNY   48  44  86 NE5       30.16S
O`NEILL        MOSUNNY   46  45  97 CALM      30.19S
ORD            MOSUNNY   44  42  93 CALM      30.18S
THEDFORD       MOSUNNY   47  44  87 E7        30.17S
$$

NEZ041-046>049-061>064-073>077-083>087-141500-
SOUTH CENTRAL NEBRASKA

CITY           SKY/WX    TMP DP  RH WIND       PRES   REMARKS
GRAND ISLAND   SUNNY     50  45  83 S3        30.19S
AURORA         SUNNY     51  46  80 S3        30.19S
HASTINGS       SUNNY     50  43  77 S8        30.18S
HEBRON         SUNNY     51  47  86 S6        30.20S
HOLDREGE       MOSUNNY   46  43  88 CALM      30.15F
KEARNEY *      MOSUNNY   46  43  87 SE5       30.17F
YORK           SUNNY     50  46  87 S5        30.20S
$$

NEZ011>018-030>034-042>045-141500-
NORTHEAST NEBRASKA

CITY           SKY/WX    TMP DP  RH WIND       PRES   REMARKS
NORFOLK        PTSUNNY   49  45  86 W5        30.19S
ALBION         MOSUNNY   45  42  88 CALM      30.20S
BLAIR          SUNNY     55  48  80 S7        30.21R
COLUMBUS *     MOSUNNY   48  45  87 N3        30.21S
FREMONT        SUNNY     55  48  78 SE5       30.20F
TEKAMAH        SUNNY     53  48  83 S6        30.21S
WAYNE          SUNNY     49  46  90 CALM      30.20R
$$

NEZ050>053-065>068-078-088>093-141500-
SOUTHEAST NEBRASKA

CITY           SKY/WX    TMP DP  RH WIND       PRES   REMARKS
LINCOLN        SUNNY     52  47  83 S6        30.22S
OMAHA EPPLEY   MOSUNNY   54  47  77 S8        30.22S
BEATRICE       SUNNY     53  47  82 S6        30.21F
FALLS CITY     SUNNY     57  49  74 S7        30.24S
NEBRASKA CITY  SUNNY     55  46  72 S6        30.23S
PLATTSMOUTH    SUNNY     53  47  79 S7        30.22S
$$

NEZ044-045-051>053-067-141500-
OMAHA AREA

CITY           SKY/WX    TMP DP  RH WIND       PRES   REMARKS
OMAHA EPPLEY   MOSUNNY   54  47  77 S8        30.22S
BLAIR          SUNNY     55  48  80 S7        30.21R
FREMONT        SUNNY     55  48  78 SE5       30.20F
OFFUTT AFB     SUNNY     54  53  97 SE3       30.22S
PLATTSMOUTH    SUNNY     53  47  79 S7        30.22S
WAHOO          FAIR      52  48  84 CALM      30.21S
$$



USA.gov is the U.S. government's official web portal to all federal, state and local government web resources and services.